Weather History for Natchez, MS

Change the Weather History Date:

Friday, November 22, 2013

  Actual Average Record
Temperature  
Mean Temperature 62 °F -  
Max Temperature 69 °F 67 °F 83 °F (1973)
Min Temperature 55 °F 44 °F 24 °F (2008)
Degree Days  
Heating Degree Days 3    
Growing Degree Days 12 (Base 50)    
Moisture  
Dew Point 62 °F    
Average Humidity 91    
Maximum Humidity 100    
Minimum Humidity 78    
Precipitation  
Precipitation 0.58 in - - ()
Sea Level Pressure  
Sea Level Pressure 30.21 in    
Wind  
Wind Speed 7 mph (East)    
Max Wind Speed 15 mph    
Max Gust Speed 22 mph    
Visibility 7 miles    
Events      
Averages and records for this station are not official NWS values.
T = Trace of Precipitation, MM = Missing Value Source: NWS Daily Summary

Daily Weather History Graph

Daily Weather History Graph

Search for Another Location

Airport:

Trip Planner

Search our weather history database for the weather conditions in past years. The results will help you decide how hot, cold, wet, or windy it might be!

Date:

Astronomy

Nov. 22, 2013 Rise Set
Actual Time 6:39 AM CST 5:03 PM CST
Civil Twilight 6:13 AM CST 5:29 PM CST
Nautical Twilight 5:43 AM CST 5:58 PM CST
Astronomical Twilight 5:14 AM CST 6:28 PM CST
Moon 9:30 PM CST 10:26 AM CST
Length of Visible Light 11h 15m
Length of Day
10h 23m
Waning Gibbous, 78% of the Moon is Illuminated
Nov 22
Waning Gibbous
Nov 25
Last Quarter
Dec 2
New
Dec 9
First Quarter
Dec 17
Full

Hourly Weather History & Observations

Time (CST) Temp. Dew Point Humidity Pressure Visibility Wind Dir Wind Speed Gust Speed Precip Events Conditions
12:15 AM 66.2 °F 62.6 °F 88% 30.17 in 7.0 mi SE 10.4 mph - N/A   Overcast
12:35 AM 66.2 °F 62.6 °F 88% 30.17 in 6.0 mi SE 10.4 mph - N/A   Overcast
12:55 AM 66.2 °F 62.6 °F 88% 30.17 in 6.0 mi SE 11.5 mph 16.1 mph N/A   Overcast
1:15 AM 66.2 °F 62.6 °F 88% 30.17 in 5.0 mi SSE 10.4 mph - N/A   Overcast
1:35 AM 66.2 °F 62.6 °F 88% 30.17 in 5.0 mi SSE 8.1 mph - N/A   Overcast
1:55 AM 66.2 °F 62.6 °F 88% 30.17 in 5.0 mi SSE 8.1 mph - N/A   Overcast
2:15 AM 66.2 °F 62.6 °F 88% 30.17 in 5.0 mi South 8.1 mph - N/A   Overcast
2:35 AM 66.2 °F 62.6 °F 88% 30.16 in 5.0 mi SE 9.2 mph - N/A   Overcast
2:55 AM 66.2 °F 62.6 °F 88% 30.16 in 5.0 mi SSE 8.1 mph - N/A   Overcast
3:15 AM 66.2 °F 62.6 °F 88% 30.16 in 5.0 mi SE 8.1 mph - N/A   Overcast
3:35 AM 66.2 °F 64.4 °F 94% 30.15 in 4.0 mi SE 8.1 mph - N/A   Overcast
3:55 AM 66.2 °F 64.4 °F 94% 30.16 in 4.0 mi SSE 8.1 mph - N/A   Overcast
4:15 AM 66.2 °F 64.4 °F 94% 30.16 in 4.0 mi SSE 6.9 mph - N/A   Overcast
4:35 AM 66.2 °F 64.4 °F 94% 30.16 in 3.0 mi SSE 8.1 mph - N/A   Overcast
4:55 AM 66.2 °F 64.4 °F 94% 30.16 in 5.0 mi SE 8.1 mph - N/A   Overcast
5:15 AM 66.2 °F 64.4 °F 94% 30.16 in 5.0 mi SSE 9.2 mph - N/A   Overcast
5:35 AM 66.2 °F 64.4 °F 94% 30.17 in 5.0 mi SSE 8.1 mph - N/A   Overcast
5:55 AM 66.2 °F 64.4 °F 94% 30.18 in 5.0 mi SSE 5.8 mph - N/A   Overcast
6:15 AM 66.2 °F 64.4 °F 94% 30.17 in 5.0 mi SSE 5.8 mph - N/A   Overcast
6:35 AM 66.2 °F 64.4 °F 94% 30.19 in 5.0 mi SSE 6.9 mph - N/A   Overcast
6:55 AM 66.2 °F 64.4 °F 94% 30.19 in 3.0 mi SSE 6.9 mph - N/A   Overcast
7:15 AM 66.2 °F 64.4 °F 94% 30.21 in 3.0 mi Calm Calm - N/A   Overcast
7:35 AM 66.2 °F 64.4 °F 94% 30.22 in 4.0 mi Calm Calm - N/A   Overcast
7:55 AM 66.2 °F 64.4 °F 94% 30.23 in 4.0 mi West 4.6 mph - N/A   Overcast
8:15 AM 66.2 °F 64.4 °F 94% 30.26 in 3.0 mi NNW 15.0 mph 21.9 mph N/A   Overcast
8:35 AM 64.4 °F 62.6 °F 94% 30.26 in 3.0 mi North 5.8 mph - 0.46 in   Overcast
8:55 AM 64.4 °F 62.6 °F 94% 30.26 in 8.0 mi Calm Calm - 0.52 in   Mostly Cloudy
9:15 AM 64.4 °F 62.6 °F 94% 30.24 in 8.0 mi SE 5.8 mph - 0.01 in   Overcast
9:35 AM 64.4 °F 62.6 °F 94% 30.25 in 10.0 mi SSE 3.5 mph - 0.02 in   Overcast
9:55 AM 64.4 °F 62.6 °F 94% 30.26 in 10.0 mi SSE 3.5 mph - 0.02 in   Overcast
10:15 AM 64.4 °F 62.6 °F 94% 30.26 in 10.0 mi SE 5.8 mph - 0.02 in   Overcast
10:35 AM 64.4 °F 62.6 °F 94% 30.26 in 10.0 mi South 4.6 mph - 0.03 in   Overcast
10:55 AM 64.4 °F 62.6 °F 94% 30.26 in 10.0 mi Calm Calm - 0.03 in   Mostly Cloudy
11:15 AM 66.2 °F 62.6 °F 88% 30.27 in 10.0 mi Calm Calm - 0.01 in   Overcast
11:35 AM 66.2 °F 62.6 °F 88% 30.26 in 10.0 mi SSE 3.5 mph - 0.01 in   Overcast
11:55 AM 66.2 °F 64.4 °F 94% 30.25 in 10.0 mi Calm Calm - 0.01 in   Overcast
12:15 PM 66.2 °F 62.6 °F 88% 30.23 in 10.0 mi ENE 4.6 mph - N/A   Overcast
12:35 PM 66.2 °F 64.4 °F 94% 30.23 in 10.0 mi Calm Calm - N/A   Overcast
12:55 PM 66.2 °F 64.4 °F 94% 30.21 in 10.0 mi East 4.6 mph - N/A   Overcast
1:15 PM 66.2 °F 64.4 °F 94% 30.20 in 10.0 mi East 4.6 mph - N/A   Overcast
1:35 PM 68.0 °F 64.4 °F 88% 30.19 in 10.0 mi East 3.5 mph - N/A   Mostly Cloudy
1:55 PM 69.8 °F 64.4 °F 83% 30.19 in 10.0 mi Calm Calm - N/A   Mostly Cloudy
2:15 PM 69.8 °F 64.4 °F 83% 30.19 in 10.0 mi Calm Calm - N/A   Overcast
2:35 PM 69.8 °F 64.4 °F 83% 30.19 in 10.0 mi Calm Calm - N/A   Scattered Clouds
2:55 PM 69.8 °F 62.6 °F 78% 30.18 in 10.0 mi ENE 3.5 mph - N/A   Mostly Cloudy
3:15 PM 69.8 °F 62.6 °F 78% 30.18 in 10.0 mi ENE 5.8 mph - N/A   Mostly Cloudy
3:35 PM 69.8 °F 62.6 °F 78% 30.18 in 10.0 mi ENE 5.8 mph - N/A   Mostly Cloudy
3:55 PM 68.0 °F 62.6 °F 83% 30.17 in 10.0 mi ENE 5.8 mph - N/A   Overcast
4:15 PM 68.0 °F 62.6 °F 83% 30.18 in 10.0 mi North 5.8 mph - N/A   Overcast
4:35 PM 66.2 °F 62.6 °F 88% 30.19 in 10.0 mi North 5.8 mph - N/A   Overcast
4:55 PM 66.2 °F 62.6 °F 88% 30.17 in 10.0 mi NE 5.8 mph - N/A   Overcast
5:15 PM 66.2 °F 62.6 °F 88% 30.19 in 10.0 mi North 5.8 mph - N/A   Overcast
5:35 PM 66.2 °F 62.6 °F 88% 30.20 in 10.0 mi North 4.6 mph - N/A   Overcast
5:55 PM 66.2 °F 62.6 °F 88% 30.21 in 10.0 mi North 4.6 mph - N/A   Overcast
6:15 PM 66.2 °F 62.6 °F 88% 30.21 in 10.0 mi NNE 4.6 mph - N/A   Overcast
6:35 PM 64.4 °F 62.6 °F 94% 30.22 in 10.0 mi North 3.5 mph - N/A   Overcast
6:55 PM 64.4 °F 62.6 °F 94% 30.22 in 10.0 mi North 6.9 mph - N/A   Overcast
7:15 PM 64.4 °F 60.8 °F 88% 30.23 in 10.0 mi North 13.8 mph 17.3 mph N/A   Overcast
7:35 PM 62.6 °F 59.0 °F 88% 30.22 in 10.0 mi NNE 11.5 mph - N/A   Overcast
7:55 PM 60.8 °F 57.2 °F 88% 30.23 in 10.0 mi North 9.2 mph - N/A   Overcast
8:15 PM 60.8 °F 57.2 °F 88% 30.23 in 9.0 mi North 8.1 mph - N/A   Overcast
8:35 PM 60.8 °F 57.2 °F 88% 30.24 in 7.0 mi North 9.2 mph - N/A   Overcast
8:55 PM 59.0 °F 57.2 °F 94% 30.24 in 5.0 mi NNE 11.5 mph - N/A   Overcast
9:15 PM 59.0 °F 57.2 °F 94% 30.25 in 4.0 mi NNE 10.4 mph - N/A   Overcast
9:35 PM 57.2 °F 55.4 °F 94% 30.25 in 3.0 mi North 9.2 mph - N/A   Overcast
9:55 PM 57.2 °F 55.4 °F 94% 30.25 in 2.5 mi North 8.1 mph - N/A   Overcast
10:15 PM 57.2 °F 55.4 °F 94% 30.25 in 2.0 mi North 9.2 mph - N/A   Overcast
10:35 PM 57.2 °F 55.4 °F 94% 30.25 in 2.5 mi North 10.4 mph - N/A   Overcast
10:55 PM 57.2 °F 55.4 °F 94% 30.24 in 1.8 mi North 10.4 mph - N/A   Overcast
11:15 PM 55.4 °F 55.4 °F 100% 30.24 in 1.5 mi North 9.2 mph - N/A   Overcast
11:35 PM 55.4 °F 55.4 °F 100% 30.24 in 1.5 mi NNE 9.2 mph - N/A   Overcast
11:55 PM 55.4 °F 55.4 °F 100% 30.24 in 1.8 mi North 6.9 mph - N/A   Overcast